Wind_Speed
7 7 9 9 10 13 14 14 15 16 17 18 19 20 20 19 19 17 16 15 14 14 17 16 15 18 19 17 15 15 14 14 15 14 16 17 17 16 15 13 11 12 11
8 8 10 11 11 12 15 14 15 17 17 18 16 16 18 20 19 16 16 15 14 15 16 16 15 17 18 15 14 16 15 16 15 14 17 18 18 17 16 15 14 14 15
7 9 10 11 13 13 13 14 15 16 16 18 18 19 19 21 20 17 15 14 14 14 16 15 15 16 17 16 15 17 14 17 14 15 16 17 18 18 16 15 15 19 20
7 8 9 9 10 12 14 15 15 15 16 18 18 20 23 23 20 17 15 14 13 14 13 15 15 14 16 15 13 14 15 17 16 15 16 15 16 17 18 17 16 17 18
8 9 10 9 11 12 13 14 15 14 16 17 19 20 21 21 19 14 14 14 13 14 13 14 13 13 16 14 11 11 11 13 16 15 15 13 14 16 17 16 16 15 17
6 8 10 10 10 11 12 13 16 15 16 19 19 19 23 21 17 13 15 13 12 11 13 13 12 13 15 13 11 10 8 11 16 13 13 11 10 14 16 17 16 15 16
5 6 8 10 11 11 11 13 15 17 17 19 20 23 23 20 17 14 9 14 11 9 12 13 12 12 14 12 10 11 9 9 15 13 13 11 8 9 12 14 15 15 16
8 9 10 11 11 9 10 12 14 18 18 19 23 22 24 23 18 17 10 14 11 10 11 12 11 12 13 12 10 10 11 9 12 12 10 11 10 8 9 10 13 14 13
9 9 9 9 8 9 10 10 14 27 26 22 21 24 22 23 21 17 12 16 12 10 10 10 10 12 11 11 10 9 10 10 13 12 10 8 7 9 8 8 8 9 11
10 8 6 4 3 3 7 13 23 11 13 10 12 19 26 20 18 15 9 11 12 10 8 8 8 10 11 11 10 10 11 8 10 12 11 10 8 6 7 7 7 9 9
13 10 8 4 5 9 9 11 14 8 11 10 18 22 27 20 16 12 10 12 11 10 9 8 8 8 8 10 11 10 12 9 11 10 10 9 9 8 5 5 4 4 4
12 13 13 12 10 5 12 12 13 13 12 14 18 16 25 24 16 15 11 13 11 10 8 8 8 8 7 7 9 9 12 11 11 8 9 6 7 7 4 1 5 4 3
13 15 16 18 14 14 10 18 16 17 16 17 15 15 29 24 19 15 13 13 11 10 8 7 7 6 6 6 8 9 9 6 5 8 7 5 4 4 4 2 2 3 3
12 14 17 19 18 13 11 12 13 12 17 17 16 13 29 21 15 18 17 14 10 10 8 6 7 6 7 7 8 9 7 6 4 5 4 3 7 8 4 4 0 1 2
11 12 16 17 21 21 16 13 14 14 17 16 19 21 18 18 17 12 16 14 11 9 10 5 5 7 8 9 7 6 4 3 3 5 4 4 5 5 4 4 5 1 1
8 10 13 17 19 21 21 17 12 12 13 12 13 19 16 18 16 9 14 15 11 9 7 6 5 7 6 4 5 4 2 1 1 4 7 7 4 4 2 5 5 0 4
9 8 11 13 16 20 20 24 25 17 15 10 19 14 17 16 12 9 7 14 11 9 7 7 7 7 5 3 1 1 3 2 2 5 8 9 5 4 6 2 6 10 7
7 8 7 11 12 16 17 19 22 24 14 16 22 21 18 14 12 11 13 14 12 9 6 4 4 4 4 5 4 2 4 4 5 6 7 8 9 7 8 6 6 7 10
4 7 5 9 12 12 15 23 21 22 23 19 26 20 17 15 14 15 14 12 10 8 8 6 4 3 3 3 4 4 5 8 6 6 7 7 8 10 10 11 12 13 14
5 4 3 4 8 10 11 17 14 17 18 22 20 19 18 16 16 15 15 12 10 8 8 6 6 5 5 6 7 7 5 6 8 7 8 10 10 14 12 16 19 16 15
7 5 4 3 9 9 10 9 8 10 14 14 15 15 12 10 10 11 10 10 6 7 9 7 5 7 7 8 11 10 8 7 9 10 11 14 12 13 12 15 14 13 14
10 10 7 8 6 12 8 7 6 10 9 8 7 9 8 7 8 7 6 7 6 8 8 9 10 10 11 12 11 14 13 12 13 13 13 13 13 14 14 10 12 17 18
12 12 7 9 12 10 11 8 10 8 6 10 7 5 5 5 6 7 6 6 7 8 9 9 11 13 12 13 14 16 16 15 15 15 16 15 14 15 16 15 11 11 17
15 15 11 11 14 14 13 11 9 7 5 7 5 3 4 4 5 7 9 9 10 11 12 13 14 14 13 14 15 14 15 16 16 17 17 16 15 15 16 17 13 10 12
17 16 15 15 12 14 13 13 8 6 4 3 2 2 1 3 6 7 9 11 12 14 15 16 16 16 17 17 17 18 19 19 18 18 18 17 17 16 16 15 15 13 12
22 20 19 19 18 18 17 14 12 9 7 5 5 4 5 7 9 12 12 15 16 17 19 20 21 22 21 21 20 21 22 23 22 21 20 19 19 17 16 17 18 17 17
Wind_Direction
112 131 139 136 136 136 134 128 122 121 123 122 129 136 144 138 140 129 130 124 120 108 96 93 86 88 85 81 83 85 95 96 97 104 105 100 94 95 101 103 101 105 115
113 132 134 138 142 137 135 132 127 127 132 133 142 143 158 152 144 140 129 120 115 107 99 93 86 85 84 80 85 90 96 96 98 103 99 100 98 100 98 100 101 105 120
121 144 140 141 145 136 132 135 135 136 136 139 136 134 141 153 144 142 132 121 115 104 98 92 86 85 85 82 80 85 93 97 97 103 100 100 105 106 101 99 106 114 113
147 143 130 143 138 132 137 142 142 140 142 145 144 138 137 140 144 147 131 122 114 102 100 93 87 87 87 83 84 91 91 98 100 103 97 101 108 110 109 109 106 107 111
144 133 139 141 138 129 132 140 150 149 148 151 155 149 148 147 145 145 132 117 111 104 104 94 93 91 88 85 86 83 85 92 92 95 97 105 110 109 108 110 112 115 119
125 135 140 131 122 124 134 149 156 161 154 155 162 164 156 149 146 142 129 111 108 107 105 105 100 95 87 76 85 88 96 103 95 91 95 97 116 119 119 119 123 125 123
130 144 137 130 130 134 147 154 162 166 163 159 165 157 158 153 151 136 147 112 111 102 109 108 101 98 89 84 80 89 93 98 104 102 105 104 111 124 127 128 127 131 132
132 138 138 136 138 143 153 171 174 173 174 175 165 166 164 160 156 160 162 121 123 117 117 114 105 94 87 86 79 77 78 82 87 99 108 105 102 103 115 131 137 133 134
125 128 132 132 138 155 171 174 199 178 176 164 172 163 170 166 161 158 154 129 123 114 116 121 107 95 86 88 88 84 77 77 86 82 83 99 92 96 96 100 123 140 140
113 110 115 128 167 212 192 191 172 155 127 131 167 179 175 170 169 161 157 133 124 115 117 121 106 88 76 84 78 76 73 72 87 93 90 89 83 70 78 83 93 104 116
94 86 76 14 282 247 208 217 207 132 150 133 145 156 180 171 179 157 162 148 138 131 136 129 105 83 74 80 75 96 84 83 72 65 81 88 96 95 97 108 111 142 144
86 80 51 54 61 79 166 179 167 181 188 168 155 182 184 162 171 167 168 160 149 135 143 138 122 120 106 92 87 93 95 100 68 52 65 89 87 81 65 104 157 174 177
85 76 62 57 74 70 112 168 172 180 182 169 164 157 171 171 167 170 183 167 152 139 149 144 124 126 118 100 100 90 104 94 41 42 58 37 60 52 29 29 110 152 205
96 86 76 63 64 66 82 147 171 178 174 171 164 160 160 161 163 181 179 173 150 142 151 149 137 141 139 122 111 108 97 87 52 47 36 16 353 27 60 88 239 258 261
99 93 80 75 67 68 74 117 129 154 153 176 164 170 178 164 165 183 179 167 151 153 154 156 146 139 141 136 128 108 88 60 28 340 341 345 24 5 8 15 15 120 55
93 99 94 86 76 76 74 91 116 127 152 157 170 164 159 180 187 172 165 171 153 157 152 140 127 128 141 141 132 131 106 38 336 314 331 338 360 5 327 334 318 144 56
92 105 111 88 94 86 84 86 85 96 138 149 151 159 164 171 187 203 199 194 166 153 150 138 139 153 163 172 216 267 311 284 314 318 323 320 331 322 326 293 303 324 332
74 111 108 103 100 95 90 90 92 82 104 162 161 163 169 165 168 152 127 128 141 139 134 140 162 189 170 193 229 280 304 312 340 327 329 339 339 323 328 299 283 287 273
85 110 158 137 117 107 115 102 96 100 94 88 120 106 123 148 154 163 160 157 172 167 167 186 193 225 238 229 277 284 297 304 321 312 308 315 315 315 304 297 279 275 284
116 136 154 143 134 117 95 86 82 89 105 106 117 125 126 136 141 148 155 160 169 183 192 209 230 254 276 270 259 254 254 271 271 276 289 295 303 308 317 321 272 258 273
108 149 164 136 155 122 118 101 95 77 96 114 126 126 129 135 141 152 167 179 188 216 213 217 225 245 252 277 261 269 268 252 266 278 291 290 297 299 310 309 300 257 271
91 105 134 160 138 140 130 141 110 90 81 114 104 116 135 158 177 184 203 218 234 238 249 246 262 270 263 277 279 277 278 275 276 279 284 288 298 300 302 297 326 264 264
75 85 85 146 154 130 100 80 101 96 64 104 97 123 148 180 190 210 226 234 239 249 254 257 257 265 265 266 271 274 276 281 280 279 278 287 297 299 294 284 299 274 254
74 72 83 105 122 119 113 105 104 92 95 101 114 152 190 200 210 216 219 228 234 235 245 249 250 255 260 264 271 273 272 273 276 279 280 287 293 295 297 296 291 262 251
89 86 81 93 98 93 92 98 103 106 124 136 149 224 241 293 290 292 289 284 284 279 273 271 273 275 276 277 279 283 281 277 272 270 277 283 284 284 289 286 276 261 247
85 86 88 87 82 79 78 78 81 79 71 59 33 2 343 331 320 315 309 303 294 295 288 283 281 276 276 277 276 276 277 274 273 273 274 274 275 274 274 281 276 255 242
Height
5879 5880 5880 5881 5882 5882 5884 5885 5885 5887 5888 5889 5892 5893 5895 5898 5898 5898 5899 5901 5903 5903 5902 5903 5904 5904 5905 5906 5907 5905 5905 5904 5904 5903 5901 5902 5903 5904 5905 5905 5905 5906 5907
5879 5880 5881 5882 5884 5884 5885 5886 5887 5889 5890 5890 5894 5894 5896 5897 5901 5902 5902 5903 5904 5904 5904 5905 5906 5906 5906 5908 5909 5908 5908 5908 5907 5906 5904 5905 5905 5905 5907 5906 5907 5908 5909
5880 5882 5882 5883 5884 5884 5885 5887 5888 5889 5891 5892 5895 5895 5896 5899 5902 5904 5905 5905 5907 5906 5906 5906 5907 5908 5909 5911 5911 5910 5910 5910 5910 5909 5907 5908 5908 5908 5908 5909 5910 5910 5910
5882 5881 5881 5884 5884 5883 5885 5888 5889 5890 5892 5893 5896 5897 5898 5901 5903 5905 5906 5907 5909 5908 5908 5909 5910 5910 5911 5912 5914 5914 5913 5913 5913 5913 5912 5913 5912 5910 5910 5910 5912 5912 5912
5883 5882 5883 5884 5884 5885 5886 5888 5890 5891 5892 5893 5896 5898 5900 5902 5904 5907 5908 5909 5910 5910 5910 5911 5912 5912 5913 5914 5916 5916 5916 5915 5915 5915 5915 5917 5916 5915 5914 5912 5914 5915 5916
5882 5883 5885 5884 5884 5884 5886 5889 5889 5891 5893 5894 5897 5899 5902 5904 5906 5909 5908 5911 5912 5912 5913 5914 5914 5915 5915 5916 5917 5918 5918 5918 5916 5916 5917 5919 5919 5918 5916 5915 5916 5917 5917
5883 5884 5884 5884 5884 5886 5887 5887 5888 5890 5893 5894 5896 5899 5903 5905 5907 5909 5910 5911 5914 5916 5916 5916 5918 5919 5919 5920 5921 5921 5922 5921 5919 5919 5919 5920 5921 5920 5919 5918 5917 5918 5918
5884 5885 5884 5884 5884 5885 5886 5886 5888 5888 5891 5894 5896 5900 5903 5905 5908 5912 5913 5914 5916 5917 5919 5919 5921 5922 5923 5924 5924 5924 5923 5923 5922 5921 5921 5921 5921 5921 5921 5921 5920 5920 5921
5885 5886 5885 5884 5884 5884 5884 5885 5884 5875 5886 5890 5893 5899 5903 5906 5909 5912 5914 5916 5918 5920 5920 5921 5924 5924 5925 5925 5925 5925 5925 5926 5925 5924 5924 5924 5924 5923 5922 5922 5921 5921 5922
5886 5886 5884 5884 5884 5885 5884 5884 5842 5875 5887 5892 5894 5898 5903 5908 5911 5913 5915 5917 5920 5922 5922 5923 5925 5925 5926 5926 5926 5926 5926 5927 5926 5926 5926 5927 5927 5926 5925 5925 5925 5924 5924
5887 5886 5886 5885 5883 5882 5885 5883 5882 5887 5891 5894 5892 5899 5904 5908 5913 5915 5917 5919 5921 5922 5923 5925 5925 5926 5927 5927 5927 5927 5927 5929 5929 5929 5928 5929 5928 5928 5928 5927 5926 5926 5926
5889 5888 5887 5884 5882 5881 5883 5883 5886 5888 5892 5895 5897 5901 5905 5909 5912 5915 5918 5919 5922 5924 5925 5926 5927 5927 5927 5927 5928 5929 5929 5930 5931 5931 5931 5930 5930 5929 5929 5928 5927 5927 5927
5890 5890 5889 5887 5885 5883 5884 5885 5887 5888 5891 5894 5897 5900 5904 5908 5911 5914 5917 5920 5923 5925 5926 5927 5928 5928 5928 5929 5929 5929 5930 5932 5931 5931 5931 5931 5931 5930 5929 5928 5928 5927 5927
5892 5893 5892 5891 5888 5886 5885 5887 5888 5890 5892 5895 5899 5901 5904 5907 5911 5914 5917 5921 5923 5926 5927 5928 5929 5929 5929 5930 5931 5932 5932 5932 5931 5931 5931 5931 5931 5931 5929 5929 5929 5928 5927
5894 5894 5894 5893 5892 5890 5888 5888 5890 5891 5895 5897 5898 5903 5905 5909 5913 5915 5919 5921 5923 5926 5927 5929 5930 5930 5930 5930 5932 5932 5932 5932 5931 5931 5931 5931 5931 5931 5930 5929 5927 5927 5927
5897 5897 5896 5896 5895 5894 5892 5890 5891 5892 5895 5899 5901 5904 5907 5911 5915 5918 5920 5922 5924 5926 5927 5929 5930 5930 5931 5932 5932 5932 5932 5932 5931 5929 5930 5930 5929 5929 5929 5928 5927 5925 5925
5899 5899 5899 5899 5899 5899 5897 5896 5894 5894 5896 5899 5903 5906 5910 5914 5917 5919 5920 5922 5925 5927 5927 5928 5929 5930 5931 5932 5932 5931 5932 5931 5931 5930 5929 5930 5929 5927 5927 5926 5924 5920 5923
5900 5901 5901 5902 5901 5902 5901 5900 5899 5898 5898 5899 5904 5907 5910 5913 5916 5919 5921 5922 5925 5926 5927 5928 5929 5929 5929 5931 5931 5930 5930 5930 5929 5929 5929 5929 5928 5928 5926 5925 5925 5924 5921
5901 5902 5902 5903 5903 5903 5903 5904 5904 5904 5904 5903 5902 5909 5911 5914 5917 5920 5922 5923 5925 5926 5926 5927 5928 5928 5929 5929 5929 5928 5927 5927 5927 5927 5927 5927 5927 5926 5925 5925 5924 5921 5918
5902 5902 5903 5905 5905 5905 5904 5906 5906 5907 5908 5909 5911 5914 5916 5918 5919 5921 5921 5923 5924 5924 5924 5924 5926 5926 5926 5926 5926 5925 5925 5926 5925 5925 5925 5924 5924 5924 5923 5922 5920 5920 5918
5905 5904 5905 5906 5905 5906 5906 5908 5908 5908 5910 5911 5913 5915 5916 5918 5920 5921 5923 5924 5923 5924 5924 5924 5925 5925 5925 5924 5924 5922 5923 5924 5925 5924 5923 5922 5920 5918 5917 5916 5914 5916 5915
5908 5907 5909 5908 5907 5907 5907 5908 5909 5910 5911 5913 5914 5915 5918 5920 5922 5922 5923 5923 5922 5924 5925 5924 5924 5924 5923 5917 5922 5923 5922 5922 5922 5922 5921 5920 5918 5915 5912 5912 5911 5912 5911
5911 5909 5911 5911 5910 5910 5910 5911 5911 5912 5913 5914 5916 5918 5920 5921 5921 5921 5921 5921 5921 5921 5921 5920 5919 5920 5919 5918 5918 5919 5919 5919 5919 5919 5917 5916 5915 5914 5912 5910 5907 5907 5907
5912 5911 5912 5913 5913 5913 5912 5913 5914 5916 5917 5917 5919 5920 5921 5921 5919 5918 5918 5917 5917 5915 5914 5914 5914 5914 5914 5914 5914 5914 5914 5914 5914 5914 5913 5912 5912 5911 5909 5907 5906 5905 5904
5915 5916 5915 5914 5915 5913 5914 5915 5918 5919 5919 5918 5919 5921 5922 5921 5921 5921 5921 5919 5919 5918 5916 5914 5912 5911 5910 5910 5910 5910 5910 5910 5909 5909 5908 5908 5907 5906 5905 5904 5904 5903 5902
5918 5918 5918 5916 5915 5914 5915 5917 5919 5920 5921 5921 5921 5922 5922 5921 5921 5920 5919 5918 5917 5916 5914 5913 5911 5908 5905 5905 5906 5906 5905 5905 5904 5904 5904 5904 5902 5901 5900 5899 5899 5899 5899